Powrót do katalogu

BLOCK DM-SL R/B

AktywnyHEO
NORAD 28365·ROCKET BODY· XX

Wystrzelony Jun 29, 2004 z Sea Launch Platform

Loading…

Następne Przeloty (najbliższe 24 godziny)

TLE

ŚwieżeSource: Space-Track

Epoka: Sep 14, 2026, 21:09 UTC

1 28365U 04024B   26257.88135390  .00000022  00000-0  48807-3 0  9997
2 28365   0.1106 321.3575 5960355 314.6036  60.3282  3.73394601303076

Śledź BLOCK DM-SL R/B w czasie rzeczywistym z AllMySat

Download on the App Store